Regional Weather Roundup
Issued by NWS Sioux Falls, SD

Home | Current Version | Previous Version | Graphics & Text | Print | Product List | Glossary Off
Versions: 1 2 3 4 5 6 7 8 9 10 11 12 13 14 15 16 17 18 19 20 21 22 23 24 25 26 27 28 29 30 31 32 33 34 35 36 37 38 39 40 41 42 43 44 45 46 47 48 49 50

000
ASUS43 KFSD 050310
RWRFSD

WEATHER ROUNDUP FOR SE SOUTH DAKOTA/SW MINNESOTA/NW IOWA
NATIONAL WEATHER SERVICE SIOUX FALLS SD
1000 PM CDT WED MAY 04 2016

NOTE: "FAIR" INDICATES FEW OR NO CLOUDS BELOW 12,000 FEET WITH NO
SIGNIFICANT WEATHER AND OR OBSTRUCTIONS TO VISIBILITY.


SDZ038>040-050-052>070-050400-
SOUTHEAST SOUTH DAKOTA

CITY           SKY/WX    TMP DP  RH WIND       PRES   REMARKS
BROOKINGS      CLEAR     56  30  37 N3        30.01R
CHAMBERLAIN    CLEAR     60  48  66 CALM      30.03S
HURON          CLEAR     59  40  49 CALM      30.01R
MADISON        FAIR      54  36  50 N3        30.03R
MITCHELL       CLEAR     57  43  59 SW3       30.02R
SIOUX FALLS    CLEAR     51  34  52 NW5       30.01R
WINNER         FAIR      55  43  63 SE9       30.05R
YANKTON        CLEAR     54  37  54 W6        30.02R
$$

MNZ071-072-080-081-089-090-097-098-050400-
SOUTHWEST MINNESOTA

CITY           SKY/WX    TMP DP  RH WIND       PRES   REMARKS
FAIRMONT       CLEAR     55  30  38 N5        29.98R
JACKSON        CLEAR     54  32  43 NW6       30.00R
LUVERNE        CLEAR     52  34  50 N3        30.02R
MARSHALL       CLEAR     54  31  41 NW7       30.01R
MONTEVIDEO     CLEAR     55  28  35 CALM      30.01S
PIPESTONE      CLEAR     55  27  33 CALM      30.01S
REDWOOD FALLS  CLEAR     59  27  29 N6        29.99R
TRACY          CLEAR     56  33  42 NW3       30.01R
WINDOM         CLEAR     50  32  50 CALM      30.00R
WORTHINGTON    CLEAR     51  37  58 NW7       30.01R
$$

IAZ001>003-012>014-020>022-031-032-NEZ013-014-SDZ071-050400-
NORTHWEST IOWA

CITY           SKY/WX    TMP DP  RH WIND       PRES   REMARKS
CHEROKEE       CLEAR     51  38  62 CALM      30.00R
DENISON        CLEAR     55  39  54 NE8       29.98R
ESTHERVILLE    CLEAR     52  37  56 NW9       29.98R
LE MARS        CLEAR     55  39  54 N5        30.02R
ORANGE CITY    CLEAR     61  34  36 N5        30.01R
SHELDON        CLEAR     50  36  57 N5        29.99S
SIOUX CITY     CLEAR     53  40  61 W7        30.01R
SPENCER        CLEAR     51  38  60 NW9       30.00R
STORM LAKE     CLEAR     52  37  58 N9        30.00R
$$

ABBREVIATIONS USED IN REMARKS
   TC - TEMPERATURE IN CELSIUS
  WCI - WIND CHILL INDEX
   HX - HEAT INDEX
  VSB - VISIBILITY




USA.gov is the U.S. government's official web portal to all federal, state and local government web resources and services.